Las Vegas, NM

6:21 AM MDT on August 24, 2016 (GMT -0600)
Las Vegas Municipal

Weather History for KLVS - March, 2013

Change the Weather History Date:

Tuesday, March 12, 2013

  Actual Average Record
Temperature  
Mean Temperature 37 °F -  
Max Temperature 48 °F 54 °F 82 °F (1997)
Min Temperature 26 °F 25 °F 2 °F (1948)
Degree Days  
Heating Degree Days 28    
Moisture  
Dew Point 20 °F    
Average Humidity 51    
Maximum Humidity 71    
Minimum Humidity 36    
Precipitation  
Precipitation 0.00 in - - ()
Sea Level Pressure  
Sea Level Pressure 30.13 in    
Wind  
Wind Speed 11 mph (South)    
Max Wind Speed 24 mph    
Max Gust Speed 31 mph    
Visibility 10 miles    
Events      
Averages and records for this station are not official NWS values.
T = Trace of Precipitation, MM = Missing Value Source: NWS Daily Summary

Daily Weather History Graph

Daily Weather History Graph

Search for Another Location

Airport or City:

Trip Planner

Search our weather history database for the weather conditions in past years. The results will help you decide how hot, cold, wet, or windy it might be!

Date:

Astronomy

Mar. 12, 2013 Rise Set
Actual Time 7:15 AM MDT 7:05 PM MDT
Civil Twilight 6:49 AM MDT 7:31 PM MDT
Nautical Twilight 6:20 AM MDT 8:00 PM MDT
Astronomical Twilight 5:50 AM MDT 8:30 PM MDT
Moon 7:26 AM MDT (3/12) 8:19 PM MDT (3/12)
Length of Visible Light 12h 41m
Length of Day
11h 50m
New Moon, 1% of the Moon is Illuminated
Mar 12
New Moon
Mar 19
First Quarter
Mar 27
Full
Apr 2
Last Quarter
Apr 10
New

Hourly Weather History & Observations

Time (MDT) Temp. Windchill Dew Point Humidity Pressure Visibility Wind Dir Wind Speed Gust Speed Precip Events Conditions
12:53 AM 36.0 °F 29.6 °F 16.0 °F 44% 29.90 in 10.0 mi NNW 8.1 mph - N/A   Clear
1:53 AM 33.1 °F 25.5 °F 15.1 °F 48% 29.92 in 10.0 mi NNW 9.2 mph - N/A   Clear
2:53 AM 34.0 °F 28.0 °F 17.1 °F 50% 29.93 in 10.0 mi North 6.9 mph - N/A   Clear
3:53 AM 28.0 °F 16.5 °F 14.0 °F 56% 29.94 in 10.0 mi ENE 15.0 mph - N/A   Clear
4:53 AM 26.1 °F 17.6 °F 15.1 °F 63% 30.01 in 10.0 mi East 8.1 mph - N/A   Clear
5:53 AM 26.1 °F 20.5 °F 16.0 °F 66% 30.05 in 10.0 mi SW 4.6 mph - N/A   Clear
6:53 AM 30.0 °F 25.2 °F 18.0 °F 61% 30.07 in 10.0 mi East 4.6 mph - N/A   Clear
7:53 AM 26.1 °F - 18.0 °F 71% 30.15 in 10.0 mi Calm Calm - N/A   Clear
8:53 AM 33.1 °F 28.7 °F 19.9 °F 59% 30.17 in 10.0 mi SSE 4.6 mph - N/A   Clear
9:53 AM 35.1 °F 28.6 °F 19.9 °F 54% 30.16 in 10.0 mi South 8.1 mph - N/A   Clear
10:53 AM 37.0 °F 31.0 °F 19.9 °F 50% 30.18 in 10.0 mi SSW 8.1 mph - N/A   Clear
11:53 AM 39.9 °F 31.4 °F 21.9 °F 49% 30.19 in 10.0 mi South 16.1 mph - N/A   Clear
12:53 PM 44.1 °F 36.8 °F 24.1 °F 45% 30.18 in 10.0 mi South 16.1 mph 24.2 mph N/A   Clear
1:53 PM 45.0 °F 37.1 °F 23.0 °F 42% 30.17 in 10.0 mi South 19.6 mph 25.3 mph N/A   Clear
2:53 PM 46.9 °F - 23.0 °F 39% 30.13 in 10.0 mi South 19.6 mph 26.5 mph N/A   Clear
3:53 PM 48.0 °F - 23.0 °F 37% 30.13 in 10.0 mi South 24.2 mph 31.1 mph N/A   Clear
4:53 PM 48.9 °F - 23.0 °F 36% 30.15 in 10.0 mi South 17.3 mph 27.6 mph N/A   Clear
5:53 PM 48.0 °F - 23.0 °F 37% 30.16 in 10.0 mi South 17.3 mph - N/A   Clear
6:53 PM 44.1 °F 36.5 °F 21.9 °F 42% 30.18 in 10.0 mi South 17.3 mph - N/A   Clear
7:53 PM 39.0 °F 31.0 °F 21.9 °F 50% 30.25 in 10.0 mi South 13.8 mph - N/A   Clear
8:53 PM 35.1 °F 26.9 °F 21.0 °F 57% 30.27 in 10.0 mi South 11.5 mph - N/A   Clear
9:53 PM 36.0 °F 27.5 °F 21.0 °F 55% 30.26 in 10.0 mi SSW 12.7 mph - N/A   Clear
10:53 PM 34.0 °F 25.0 °F 21.0 °F 59% 30.29 in 10.0 mi SW 12.7 mph - N/A   Clear
11:53 PM 34.0 °F 24.2 °F 21.9 °F 61% 30.27 in 10.0 mi SW 15.0 mph - N/A   Clear